AUA102 LOWI-LOWW

Flight info

Callsign AUA102
Flight time 0h 49m
Altitude 29000
Route RTT1R/26 RTT DCT NEMAL NEMAL2W
Aircraft A20N/M-SDE2E3FGHIRWXY/LB1

Departure

Time 2026-05-06 18:46
Airport Innsbruck Airport (LOWI)

Arrival

Time 2026-05-06 19:35
Airport Vienna International Airport (LOWW)
Time Latitude Longitude Altitude Speed Heading
2026-05-06 18:14 47.25802 11.34871 1914 ft 0 kts 171°
2026-05-06 18:25 47.25809 11.34870 1899 ft 4 kts 171°
2026-05-06 18:26 47.25835 11.34864 1903 ft 4 kts 171°
2026-05-06 18:26 47.25855 11.34852 1899 ft 4 kts 94°
2026-05-06 18:26 47.25853 11.34823 1908 ft 4 kts 81°
2026-05-06 18:26 47.25852 11.34815 1906 ft 0 kts 81°
2026-05-06 18:28 47.25854 11.34830 1910 ft 3 kts 80°
2026-05-06 18:28 47.25859 11.34877 1901 ft 6 kts 80°
2026-05-06 18:28 47.25868 11.34955 1906 ft 9 kts 80°
2026-05-06 18:29 47.25879 11.35044 1906 ft 10 kts 80°
2026-05-06 18:29 47.25885 11.35105 1905 ft 6 kts 83°
2026-05-06 18:29 47.25886 11.35120 1908 ft 3 kts 84°
2026-05-06 18:29 47.25887 11.35125 1909 ft 0 kts 84°
2026-05-06 18:30 47.25887 11.35128 1910 ft 1 kts 84°
2026-05-06 18:31 47.25889 11.35149 1910 ft 4 kts 82°
2026-05-06 18:31 47.25891 11.35179 1913 ft 6 kts 82°
2026-05-06 18:31 47.25892 11.35187 1909 ft 0 kts 82°
2026-05-06 18:35 47.25892 11.35190 1908 ft 1 kts 82°
2026-05-06 18:35 47.25895 11.35218 1909 ft 4 kts 80°
2026-05-06 18:35 47.25901 11.35264 1913 ft 4 kts 79°
2026-05-06 18:35 47.25924 11.35288 1913 ft 2 kts
2026-05-06 18:38 47.25940 11.35287 1903 ft 4 kts 355°
2026-05-06 18:39 47.25962 11.35282 1913 ft 3 kts 351°
2026-05-06 18:39 47.25967 11.35281 1913 ft 0 kts 351°
2026-05-06 18:44 47.25991 11.35275 1902 ft 16 kts 351°
2026-05-06 18:44 47.26102 11.35263 1908 ft 12 kts 28°
2026-05-06 18:45 47.26127 11.35389 1905 ft 26 kts 79°
2026-05-06 18:45 47.26131 11.35602 1909 ft 19 kts 106°
2026-05-06 18:45 47.26144 11.35686 1904 ft 1 kts
2026-05-06 18:45 47.26152 11.35668 1903 ft 10 kts 297°
2026-05-06 18:46 47.26066 11.34839 1900 ft 119 kts 260°
2026-05-06 18:46 47.25918 11.33331 2138 ft 162 kts 257°
2026-05-06 18:46 47.25863 11.31650 2951 ft 166 kts 275°
2026-05-06 18:46 47.25977 11.29995 3892 ft 163 kts 275°
2026-05-06 18:47 47.26082 11.28304 4596 ft 168 kts 275°
2026-05-06 18:47 47.26179 11.26542 5210 ft 175 kts 264°
2026-05-06 18:47 47.25677 11.24937 5837 ft 176 kts 217°
2026-05-06 18:47 47.24563 11.24446 6622 ft 170 kts 171°
2026-05-06 18:48 47.23570 11.25312 7288 ft 175 kts 127°
2026-05-06 18:48 47.23181 11.27057 7922 ft 185 kts 97°
2026-05-06 18:48 47.23289 11.28988 8555 ft 193 kts 82°
2026-05-06 18:48 47.23647 11.30842 9379 ft 191 kts 75°
2026-05-06 18:49 47.24098 11.32695 10053 ft 194 kts 73°
2026-05-06 18:49 47.24564 11.34584 10630 ft 200 kts 74°
2026-05-06 18:49 47.25033 11.36558 11280 ft 205 kts 75°
2026-05-06 18:49 47.25495 11.38591 11824 ft 218 kts 75°
2026-05-06 18:50 47.25983 11.40834 12143 ft 240 kts 76°
2026-05-06 18:50 47.26512 11.43291 12434 ft 263 kts 76°
2026-05-06 18:50 47.27094 11.45996 12636 ft 291 kts 75°
2026-05-06 18:50 47.27730 11.48936 12973 ft 316 kts 75°
2026-05-06 18:51 47.28428 11.52161 13276 ft 341 kts 75°
2026-05-06 18:51 47.29175 11.55609 13542 ft 365 kts 75°
2026-05-06 18:51 47.29965 11.59258 14006 ft 379 kts 75°
2026-05-06 18:51 47.30784 11.62965 14801 ft 382 kts 72°
2026-05-06 18:52 47.31849 11.66592 15458 ft 388 kts 70°
2026-05-06 18:52 47.32650 11.70331 15726 ft 387 kts 78°
2026-05-06 18:52 47.33300 11.74187 15808 ft 389 kts 79°
2026-05-06 18:52 47.33924 11.78065 15812 ft 387 kts 79°
2026-05-06 18:53 47.34555 11.81918 15820 ft 387 kts 79°
2026-05-06 18:53 47.35194 11.85730 15820 ft 388 kts 79°
2026-05-06 18:53 47.35854 11.89598 15821 ft 389 kts 78°
2026-05-06 18:53 47.36523 11.93482 16031 ft 393 kts 78°
2026-05-06 18:54 47.37197 11.97400 16841 ft 395 kts 78°
2026-05-06 18:54 47.37874 12.01336 17662 ft 399 kts 79°
2026-05-06 18:54 47.38557 12.05331 18409 ft 402 kts 79°
2026-05-06 18:54 47.39244 12.09363 19008 ft 408 kts 79°
2026-05-06 18:55 47.39939 12.13444 19641 ft 412 kts 79°
2026-05-06 18:55 47.40640 12.17583 20194 ft 418 kts 79°
2026-05-06 18:55 47.41350 12.21767 20827 ft 421 kts 79°
2026-05-06 18:55 47.42063 12.25984 21478 ft 425 kts 79°
2026-05-06 18:56 47.42784 12.30263 22042 ft 431 kts 79°
2026-05-06 18:56 47.43510 12.34579 22631 ft 435 kts 79°
2026-05-06 18:56 47.44240 12.38943 23244 ft 440 kts 79°
2026-05-06 18:56 47.44977 12.43354 23748 ft 445 kts 79°
2026-05-06 18:57 47.45716 12.47774 24228 ft 450 kts 80°
2026-05-06 18:57 47.46469 12.52284 24669 ft 453 kts 79°
2026-05-06 18:57 47.47228 12.56825 25102 ft 458 kts 80°
2026-05-06 18:57 47.47991 12.61428 25554 ft 463 kts 80°
2026-05-06 18:58 47.48759 12.66076 26011 ft 467 kts 80°
2026-05-06 18:58 47.49529 12.70757 26497 ft 470 kts 80°
2026-05-06 18:58 47.50304 12.75479 26848 ft 475 kts 80°
2026-05-06 18:58 47.51085 12.80243 27300 ft 478 kts 80°
2026-05-06 18:59 47.51868 12.85041 27704 ft 483 kts 80°
2026-05-06 18:59 47.52659 12.89890 28043 ft 487 kts 81°
2026-05-06 18:59 47.53452 12.94779 28393 ft 490 kts 80°
2026-05-06 18:59 47.54251 12.99708 28738 ft 493 kts 80°
2026-05-06 19:00 47.55047 13.04640 28837 ft 495 kts 81°
2026-05-06 19:00 47.56639 13.14539 28852 ft 495 kts 80°
2026-05-06 19:01 47.58212 13.24395 28854 ft 495 kts 81°
2026-05-06 19:01 47.59801 13.34420 28844 ft 505 kts 81°
2026-05-06 19:02 47.61411 13.44642 28833 ft 509 kts 80°
2026-05-06 19:02 47.62748 13.53162 28817 ft 509 kts 81°
2026-05-06 19:03 47.64345 13.63404 28810 ft 510 kts 81°
2026-05-06 19:03 47.65930 13.73632 28792 ft 507 kts 81°
2026-05-06 19:04 47.67506 13.83874 28803 ft 510 kts 81°
2026-05-06 19:04 47.69076 13.94138 28812 ft 511 kts 81°
2026-05-06 19:05 47.70636 14.04395 28766 ft 501 kts 81°
2026-05-06 19:05 47.71392 14.09364 28647 ft 485 kts 81°
2026-05-06 19:05 47.72127 14.14229 28376 ft 481 kts 81°
2026-05-06 19:05 47.72853 14.19079 28099 ft 481 kts 81°
2026-05-06 19:06 47.73578 14.23934 27823 ft 481 kts 81°
2026-05-06 19:06 47.74302 14.28793 27555 ft 478 kts 81°
2026-05-06 19:06 47.75017 14.33586 27301 ft 474 kts 81°
2026-05-06 19:06 47.75725 14.38355 27025 ft 470 kts 81°
2026-05-06 19:07 47.76428 14.43101 26769 ft 468 kts 81°
2026-05-06 19:07 47.77123 14.47816 26503 ft 465 kts 81°
2026-05-06 19:07 47.77804 14.52450 26245 ft 464 kts 81°
2026-05-06 19:07 47.78490 14.57127 25990 ft 461 kts 81°
2026-05-06 19:08 47.79170 14.61781 25741 ft 459 kts 81°
2026-05-06 19:08 47.79843 14.66396 25510 ft 456 kts 81°
2026-05-06 19:08 47.80512 14.71002 25100 ft 455 kts 81°
2026-05-06 19:08 47.81174 14.75598 24538 ft 453 kts 81°
2026-05-06 19:09 47.81835 14.80168 23958 ft 451 kts 81°
2026-05-06 19:09 47.82490 14.84711 23353 ft 448 kts 81°
2026-05-06 19:09 47.83135 14.89193 22785 ft 442 kts 81°
2026-05-06 19:09 47.83778 14.93669 22222 ft 435 kts 81°
2026-05-06 19:10 47.84404 14.98045 21663 ft 429 kts 81°
2026-05-06 19:10 47.85020 15.02371 21112 ft 424 kts 81°
2026-05-06 19:10 47.85627 15.06634 20568 ft 418 kts 81°
2026-05-06 19:10 47.86224 15.10852 20013 ft 414 kts 81°
2026-05-06 19:11 47.86805 15.14974 19477 ft 410 kts 81°
2026-05-06 19:11 47.87386 15.19109 18937 ft 407 kts 81°
2026-05-06 19:11 47.87964 15.23229 18389 ft 405 kts 81°
2026-05-06 19:11 47.88536 15.27311 17816 ft 401 kts 81°
2026-05-06 19:12 47.89102 15.31364 17277 ft 397 kts 81°
2026-05-06 19:12 47.89530 15.35383 16869 ft 387 kts 88°
2026-05-06 19:12 47.89611 15.39410 16768 ft 392 kts 95°
2026-05-06 19:12 47.89511 15.43472 16750 ft 391 kts 95°
2026-05-06 19:13 47.89424 15.47504 16751 ft 390 kts 95°
2026-05-06 19:13 47.89339 15.51533 16627 ft 389 kts 95°
2026-05-06 19:13 47.89256 15.55554 16259 ft 388 kts 95°
2026-05-06 19:13 47.89173 15.59546 15785 ft 384 kts 95°
2026-05-06 19:14 47.89091 15.63437 15226 ft 383 kts 95°
2026-05-06 19:14 47.89004 15.67463 14709 ft 379 kts 95°
2026-05-06 19:14 47.88916 15.71376 14195 ft 376 kts 95°
2026-05-06 19:14 47.88826 15.75256 13727 ft 372 kts 95°
2026-05-06 19:15 47.88737 15.79099 13192 ft 370 kts 95°
2026-05-06 19:15 47.88648 15.82914 12653 ft 367 kts 95°
2026-05-06 19:15 47.88560 15.86705 12098 ft 365 kts 94°
2026-05-06 19:15 47.88472 15.90422 11585 ft 362 kts 95°
2026-05-06 19:16 47.88380 15.94209 11069 ft 359 kts 95°
2026-05-06 19:16 47.88335 15.97879 10539 ft 359 kts 87°
2026-05-06 19:16 47.88776 16.01490 10346 ft 349 kts 79°
2026-05-06 19:16 47.89266 16.04968 10222 ft 335 kts 80°
2026-05-06 19:17 47.89734 16.08297 10085 ft 320 kts 80°
2026-05-06 19:17 47.90180 16.11476 10011 ft 307 kts 80°
2026-05-06 19:17 47.90614 16.14580 10007 ft 309 kts 80°
2026-05-06 19:17 47.91054 16.17738 9993 ft 311 kts 80°
2026-05-06 19:18 47.91492 16.20887 10000 ft 309 kts 80°
2026-05-06 19:18 47.91927 16.24013 10005 ft 308 kts 80°
2026-05-06 19:18 47.92364 16.27156 9992 ft 309 kts 80°
2026-05-06 19:18 47.92799 16.30295 10007 ft 309 kts 80°
2026-05-06 19:19 47.93236 16.33446 10002 ft 309 kts 80°
2026-05-06 19:19 47.93665 16.36552 10008 ft 310 kts 80°
2026-05-06 19:19 47.94105 16.39736 9995 ft 310 kts 81°
2026-05-06 19:19 47.94538 16.42885 10001 ft 310 kts 81°
2026-05-06 19:20 47.94972 16.46041 9995 ft 311 kts 81°
2026-05-06 19:20 47.95399 16.49159 10001 ft 310 kts 81°
2026-05-06 19:20 47.95831 16.52314 10012 ft 310 kts 81°
2026-05-06 19:20 47.96263 16.55477 10012 ft 312 kts 81°
2026-05-06 19:21 47.96694 16.58649 10008 ft 312 kts 81°
2026-05-06 19:21 47.97125 16.61822 10018 ft 313 kts 81°
2026-05-06 19:21 47.97556 16.65010 10010 ft 313 kts 81°
2026-05-06 19:21 47.97986 16.68192 10021 ft 308 kts 81°
2026-05-06 19:22 47.98598 16.71168 10014 ft 296 kts 63°
2026-05-06 19:22 47.99859 16.73473 10007 ft 281 kts 37°
2026-05-06 19:22 48.01583 16.74833 10015 ft 283 kts 13°
2026-05-06 19:22 48.03510 16.75090 10014 ft 275 kts 348°
2026-05-06 19:23 48.05335 16.74373 10013 ft 271 kts 337°
2026-05-06 19:23 48.07131 16.73512 10019 ft 271 kts 337°
2026-05-06 19:23 48.08932 16.72659 10011 ft 271 kts 338°
2026-05-06 19:23 48.10725 16.71818 9938 ft 269 kts 338°
2026-05-06 19:24 48.12506 16.70987 9678 ft 268 kts 338°
2026-05-06 19:24 48.14262 16.70167 9356 ft 267 kts 338°
2026-05-06 19:24 48.16035 16.69338 8997 ft 266 kts 338°
2026-05-06 19:24 48.17797 16.68514 8658 ft 265 kts 338°
2026-05-06 19:25 48.19554 16.67691 8319 ft 263 kts 338°
2026-05-06 19:25 48.21297 16.66873 7985 ft 262 kts 338°
2026-05-06 19:25 48.23031 16.66063 7660 ft 261 kts 339°
2026-05-06 19:25 48.24771 16.65316 7348 ft 260 kts 340°
2026-05-06 19:26 48.26508 16.64604 7044 ft 258 kts 340°
2026-05-06 19:26 48.28223 16.63903 6872 ft 250 kts 340°
2026-05-06 19:26 48.29861 16.63232 6765 ft 238 kts 340°
2026-05-06 19:26 48.31432 16.62580 6539 ft 233 kts 340°
2026-05-06 19:27 48.32991 16.61923 6226 ft 232 kts 340°
2026-05-06 19:27 48.34543 16.61267 5923 ft 231 kts 340°
2026-05-06 19:27 48.36088 16.60609 5603 ft 230 kts 337°
2026-05-06 19:27 48.37404 16.59405 5258 ft 219 kts 308°
2026-05-06 19:28 48.38403 16.57704 5022 ft 213 kts 305°
2026-05-06 19:28 48.39183 16.55938 4992 ft 190 kts 280°
2026-05-06 19:28 48.39194 16.54048 5014 ft 184 kts 256°
2026-05-06 19:28 48.38823 16.52275 4997 ft 175 kts 233°
2026-05-06 19:29 48.37838 16.51204 5001 ft 181 kts 206°
2026-05-06 19:29 48.36684 16.50463 5001 ft 179 kts 205°
2026-05-06 19:29 48.35556 16.49739 5000 ft 179 kts 205°
2026-05-06 19:29 48.34384 16.49110 4961 ft 181 kts 195°
2026-05-06 19:30 48.33114 16.49018 4812 ft 187 kts 179°
2026-05-06 19:30 48.31832 16.49378 4577 ft 186 kts 171°
2026-05-06 19:30 48.30590 16.49899 4335 ft 184 kts 169°
2026-05-06 19:30 48.29371 16.50422 4098 ft 181 kts 169°
2026-05-06 19:31 48.28166 16.50936 3868 ft 179 kts 170°
2026-05-06 19:31 48.26975 16.51442 3626 ft 177 kts 169°
2026-05-06 19:31 48.24646 16.52435 3179 ft 171 kts 169°
2026-05-06 19:32 48.23493 16.52925 2951 ft 171 kts 169°
2026-05-06 19:32 48.22372 16.53404 2741 ft 164 kts 169°
2026-05-06 19:32 48.21300 16.53860 2517 ft 157 kts 168°
2026-05-06 19:32 48.20288 16.54291 2326 ft 144 kts 168°
2026-05-06 19:33 48.19366 16.54683 2136 ft 135 kts 168°
2026-05-06 19:33 48.18496 16.55053 1959 ft 126 kts 168°
2026-05-06 19:33 48.17647 16.55411 1795 ft 127 kts 168°
2026-05-06 19:33 48.16797 16.55772 1630 ft 126 kts 166°
2026-05-06 19:34 48.15969 16.56125 1458 ft 124 kts 167°
2026-05-06 19:34 48.15116 16.56483 1298 ft 130 kts 166°
2026-05-06 19:34 48.14254 16.56852 1108 ft 127 kts 165°
2026-05-06 19:34 48.13395 16.57218 944 ft 130 kts 165°
2026-05-06 19:35 48.12823 16.57467 818 ft 129 kts 165°
2026-05-06 19:35 48.11682 16.57943 624 ft 124 kts 164°
2026-05-06 19:35 48.11011 16.58227 610 ft 74 kts 163°
2026-05-06 19:35 48.10649 16.58383 621 ft 46 kts 163°
2026-05-06 19:36 48.10385 16.58477 613 ft 33 kts 177°
2026-05-06 19:36 48.10212 16.58431 616 ft 18 kts 193°
2026-05-06 19:36 48.10119 16.58378 621 ft 12 kts 223°
2026-05-06 19:36 48.10090 16.58275 617 ft 8 kts 252°
2026-05-06 19:37 48.10090 16.58231 618 ft 1 kts 300°
2026-05-06 19:37 48.10093 16.58222 610 ft 0 kts 301°
2026-05-06 19:37 48.10094 16.58219 623 ft 0 kts 301°
2026-05-06 19:39 48.10099 16.58208 622 ft 4 kts 302°
2026-05-06 19:39 48.10136 16.58179 623 ft 8 kts 341°
2026-05-06 19:39 48.10185 16.58157 617 ft 9 kts 345°
2026-05-06 19:39 48.10245 16.58133 619 ft 9 kts 344°
2026-05-06 19:40 48.10272 16.58121 614 ft 0 kts 344°
2026-05-06 19:41 48.10273 16.58121 614 ft 0 kts 344°
2026-05-06 19:41 48.10283 16.58117 623 ft 2 kts 344°
2026-05-06 19:42 48.10293 16.58112 610 ft 1 kts 344°
2026-05-06 19:42 48.10299 16.58110 612 ft 1 kts 344°
2026-05-06 19:42 48.10316 16.58103 616 ft 3 kts 345°
2026-05-06 19:42 48.10326 16.58099 612 ft 0 kts 344°
2026-05-06 19:45 48.10333 16.58096 612 ft 3 kts 344°
2026-05-06 19:45 48.10354 16.58087 624 ft 3 kts 345°
2026-05-06 19:45 48.10374 16.58079 616 ft 3 kts 345°
2026-05-06 19:46 48.10409 16.58065 610 ft 7 kts 345°
2026-05-06 19:46 48.10459 16.58045 621 ft 12 kts 344°
2026-05-06 19:46 48.10567 16.57997 623 ft 18 kts 344°
2026-05-06 19:46 48.10685 16.57949 619 ft 17 kts 344°
2026-05-06 19:47 48.10795 16.57900 610 ft 16 kts 343°
2026-05-06 19:47 48.10901 16.57854 612 ft 16 kts 345°
2026-05-06 19:47 48.11025 16.57791 609 ft 21 kts 322°
2026-05-06 19:47 48.11107 16.57593 623 ft 23 kts 296°
2026-05-06 19:48 48.11155 16.57449 611 ft 23 kts 297°
2026-05-06 19:48 48.11222 16.57237 617 ft 22 kts 296°
2026-05-06 19:48 48.11287 16.57039 622 ft 20 kts 296°
2026-05-06 19:48 48.11345 16.56865 614 ft 15 kts 298°
2026-05-06 19:49 48.11425 16.56839 610 ft 12 kts 22°
2026-05-06 19:49 48.11495 16.56889 617 ft 11 kts 26°
2026-05-06 19:49 48.11560 16.56915 615 ft 10 kts 349°
2026-05-06 19:49 48.11608 16.56834 621 ft 13 kts 294°
2026-05-06 19:50 48.11655 16.56689 622 ft 14 kts 295°
2026-05-06 19:50 48.11681 16.56651 618 ft 0 kts
2026-05-06 19:50 48.11715 16.56663 610 ft 8 kts 22°
2026-05-06 19:50 48.11742 16.56680 610 ft 0 kts 25°
2026-05-06 19:51 48.11744 16.56682 610 ft 0 kts 25°